Tracking 28790 objects as of 18-Apr-2024
HD Live streaming from Space Station
objects crossing your sky now

SL-8 DEB

Track SL-8 DEB now!
10-day predictions


NORAD ID: 27745
Int'l Code: 1991-009DA
Perigee: 1,439.5 km
Apogee: 1,666.5 km
Inclination: 73.9 °
Period: 117.0 minutes
Semi major axis: 7924 km
RCS: 1.9745 m2 (large)
Launch date: February 12, 1991
Source: Commonwealth of Independent States (former USSR) (CIS)
Launch site: PLESETSK MISSILE AND SPACE COMPLEX (PKMTR)

Note: This is SATELLITE DEBRIS
Your satellite tracking list
Your tracking list is empty




NASA's NSSDC Master Catalog

Two Line Element Set (TLE):
1 27745U 91009DA  24109.15029583  .00000037  00000-0  41694-3 0  9990
2 27745  73.9257  34.9262 0143215 101.8279   2.3792 12.30793506251210
Source of the keplerian elements: AFSPC